Theta_e
281 281 281 281 281 281 281 281 282 282 283 283 283 283 284 284 285 284 284 285 284 285 285 284 284 285 284 284 285 285 284 285 282 285 286 286 284 283 284 284 285 284 285
281 281 281 281 281 280 280 281 281 281 282 282 282 282 283 283 283 283 283 284 284 284 284 284 284 286 283 284 284 283 284 285 284 282 283 283 283 284 283 282 283 285 284
280 280 280 280 280 280 280 280 281 281 281 281 282 281 282 282 282 282 282 283 284 284 284 284 284 283 283 283 283 283 283 285 285 283 281 283 282 283 281 281 282 283 284
279 279 279 280 280 280 280 280 280 281 280 280 281 281 281 281 282 282 282 282 282 283 284 284 284 284 283 283 282 283 283 284 283 282 280 280 281 282 280 279 280 281 281
277 276 277 279 279 279 279 279 280 280 280 280 280 280 280 281 281 281 282 282 282 282 283 284 284 284 286 285 284 282 282 283 283 280 279 280 279 279 278 280 281 280 280
271 274 274 274 275 275 277 278 279 279 279 279 279 279 279 281 283 284 284 281 282 283 283 283 284 282 283 286 287 288 283 282 281 280 280 278 279 280 280 280 280 279 277
268 272 272 271 271 272 273 275 276 277 278 277 278 278 277 278 282 283 284 282 282 282 283 283 284 282 280 281 284 287 287 288 287 283 281 280 280 280 279 279 280 280 277
268 271 272 270 270 272 272 273 273 275 274 275 276 276 276 277 282 283 283 281 281 282 283 283 283 283 280 279 279 279 280 281 281 282 281 281 280 280 281 282 281 278 277
269 271 273 272 271 272 272 273 274 275 274 274 275 275 275 276 281 282 281 280 280 280 282 284 284 283 284 284 281 278 278 279 283 284 285 285 285 286 286 282 276 275 272
274 274 273 272 271 271 272 273 274 274 274 276 276 276 275 274 279 281 280 280 279 279 282 283 284 283 284 285 282 281 279 280 278 275 275 279 281 281 282 280 278 274 272
278 276 274 273 273 273 273 273 273 272 273 273 274 275 274 274 275 280 281 281 280 279 281 282 283 285 286 286 285 281 280 276 275 275 278 278 278 277 275 272 273 275 270
277 277 276 276 277 277 275 275 273 272 272 273 272 273 274 274 276 279 281 283 283 281 281 282 283 285 285 285 284 285 285 284 279 277 276 276 276 275 270 271 267 268 269
274 274 274 275 276 276 275 275 274 275 275 274 273 272 273 275 275 278 280 283 283 281 283 284 285 285 285 284 284 285 281 274 279 276 275 275 275 274 271 271 265 265 268
272 273 274 273 274 274 274 275 275 275 274 273 272 272 272 273 273 274 277 279 281 281 282 282 284 285 284 282 277 278 272 272 275 275 274 276 275 269 269 264 266 262 261
272 273 273 273 273 273 274 276 276 276 275 273 273 273 272 272 274 277 277 278 280 281 280 280 281 280 279 277 274 271 267 268 272 269 274 275 273 269 269 264 262 259 261
271 272 273 273 273 273 274 275 279 279 280 280 279 278 276 278 279 279 279 280 281 282 282 279 278 278 277 276 275 273 267 267 269 272 275 275 270 268 267 263 261 258 259
270 272 272 272 272 273 273 273 272 274 277 277 277 277 277 277 277 278 279 280 282 282 281 280 277 278 277 276 274 272 268 268 268 274 276 274 270 269 266 262 261 260 260
269 270 270 271 272 272 272 271 271 269 268 268 272 273 274 275 276 277 279 281 281 282 281 281 275 276 278 276 273 270 264 266 272 274 275 273 270 268 261 260 259 258 257
269 269 270 271 272 271 271 270 269 268 267 266 266 268 269 272 273 275 278 278 279 279 280 280 273 276 276 273 270 266 266 270 274 275 274 271 267 267 257 257 258 258 257
267 267 269 271 270 269 268 268 267 266 265 264 264 264 266 267 267 270 275 276 277 279 280 276 273 274 273 270 266 265 265 270 274 274 274 271 266 261 259 258 256 257 256
269 270 270 269 268 268 268 267 266 265 264 264 263 265 270 268 268 270 273 275 277 279 277 275 274 273 269 265 265 264 266 271 273 273 271 268 262 258 257 258 257 256 255
266 267 267 267 267 267 266 266 265 264 263 263 263 264 269 268 268 270 271 276 277 279 276 276 275 272 267 267 265 265 265 267 269 268 266 263 260 260 258 258 257 254 254
266 267 266 266 266 265 265 265 264 263 262 262 262 263 264 265 267 270 274 278 278 278 275 274 272 265 266 266 267 268 267 266 267 265 263 262 261 260 261 259 258 254 253
265 264 264 263 263 263 263 263 262 262 261 261 262 263 264 264 266 269 273 279 279 275 274 273 271 267 264 264 264 263 263 264 265 265 265 264 262 260 260 257 255 253 253
263 262 262 262 262 262 262 262 261 261 260 261 262 263 263 265 267 270 276 280 277 273 271 270 268 266 266 264 263 262 264 266 265 264 264 263 263 261 261 259 255 252 251
261 261 262 262 262 262 262 261 261 261 261 261 262 263 264 267 269 272 278 277 275 272 270 267 265 265 264 264 263 263 265 266 264 263 264 264 262 260 260 258 255 254 251
Wind_Speed
3 3 4 4 5 5 5 5 5 5 5 6 6 7 6 7 6 5 6 8 7 9 7 8 10 9 6 6 6 7 7 8 12 9 10 11 12 11 11 10 12 12 11
3 4 5 5 5 5 5 6 5 6 6 6 6 6 6 6 7 7 8 8 8 9 10 8 11 7 9 9 7 9 8 8 9 14 12 10 14 12 14 13 11 11 11
4 4 5 5 5 6 6 6 6 6 6 6 6 7 8 8 8 8 7 9 10 10 11 10 11 9 10 8 8 8 7 7 8 9 12 9 11 11 11 11 11 10 7
4 5 5 5 5 6 6 6 6 5 6 6 7 7 8 8 9 10 9 9 9 10 11 11 12 11 12 10 8 9 8 8 7 9 9 10 10 10 7 9 11 7 11
4 4 6 5 5 6 6 6 7 6 6 6 7 8 8 8 8 8 9 10 10 11 11 12 12 12 16 15 7 8 8 8 7 8 9 9 10 9 8 10 10 10 13
3 6 5 5 5 6 7 7 7 7 7 6 6 7 10 8 17 19 17 11 12 14 15 13 11 11 13 20 21 21 10 8 10 8 9 11 12 11 10 9 10 10 10
4 6 7 5 6 7 6 6 8 9 7 8 8 8 9 11 21 21 21 12 14 15 15 15 13 8 8 9 14 19 19 20 19 10 13 14 15 11 10 13 11 10 9
6 7 7 6 7 7 6 7 7 7 7 8 8 9 9 10 22 22 22 15 14 16 17 16 16 14 9 8 7 8 8 8 9 7 10 10 10 10 12 11 8 8 9
8 9 8 6 7 7 8 9 9 8 8 9 8 10 11 11 22 22 20 14 14 16 14 15 15 14 14 16 8 8 8 10 10 16 18 20 21 21 15 7 6 7 8
10 10 7 7 7 8 9 10 8 7 9 8 10 10 11 13 20 23 20 11 12 12 13 13 19 13 17 16 8 10 14 11 6 5 4 8 11 9 14 5 4 6 3
8 7 7 7 8 8 9 7 8 9 9 9 11 11 12 12 13 23 23 13 9 10 10 9 7 14 19 17 15 10 14 5 7 5 4 3 5 4 4 3 3 4 2
7 7 7 8 8 8 8 9 8 7 9 10 10 10 9 10 13 19 23 23 18 11 11 8 7 15 18 15 13 17 18 14 4 2 2 5 5 4 3 2 4 4 4
6 7 8 10 10 10 9 10 8 8 9 9 8 9 10 8 8 18 24 22 20 13 9 10 15 17 18 12 17 17 9 2 6 4 5 6 3 2 2 3 3 3 6
8 10 10 9 10 8 6 7 8 8 8 9 9 10 10 10 9 8 10 8 13 11 13 10 12 14 14 9 3 6 2 3 4 5 5 4 2 0 1 1 1 2 2
9 11 11 9 9 9 9 9 8 9 10 9 9 9 10 11 10 17 17 11 8 9 9 7 6 4 5 4 3 2 1 2 4 3 4 4 2 1 1 1 0 2 2
10 9 8 8 8 8 9 11 17 23 24 25 27 21 12 24 30 30 30 29 29 28 11 7 6 5 7 5 5 4 3 4 3 4 5 3 2 2 2 1 2 2 2
10 11 9 9 9 9 9 9 11 11 21 25 25 26 28 28 31 30 30 28 29 24 13 8 7 7 7 6 5 5 4 5 4 5 4 3 3 2 2 1 1 2 2
11 13 9 9 9 9 9 9 9 10 12 10 13 20 22 27 29 29 28 25 14 12 9 8 6 7 7 6 5 5 3 3 5 5 4 4 3 3 2 2 1 3 1
9 8 8 8 9 10 9 9 10 11 10 11 10 14 14 22 24 25 26 12 9 8 8 8 5 7 6 6 5 4 5 5 5 5 4 4 3 3 2 2 3 3 3
9 12 11 9 9 9 9 10 9 9 10 10 10 11 10 10 9 9 7 7 7 7 8 6 6 6 6 6 5 5 4 5 6 5 4 4 3 3 3 4 3 3 2
7 8 9 8 9 9 9 9 9 9 10 10 10 11 21 12 11 11 9 8 8 8 6 7 7 6 5 5 5 5 6 6 5 5 5 4 4 3 3 4 4 4 3
6 8 8 9 8 9 9 9 9 9 10 10 10 11 23 10 10 10 11 10 8 9 6 8 7 6 7 7 7 7 6 6 5 5 5 5 4 5 4 4 4 3 2
7 8 8 8 9 10 10 10 9 9 10 10 10 10 9 9 10 10 12 9 8 6 6 6 6 5 5 6 7 7 9 8 7 7 7 7 6 5 5 5 5 3 2
7 8 9 9 8 9 9 10 9 10 10 10 10 10 10 10 11 12 13 8 7 6 6 6 6 8 7 6 5 4 5 6 7 8 10 8 7 6 6 5 4 3 4
7 8 8 9 9 9 10 9 9 9 9 9 10 10 10 11 12 12 13 8 7 7 6 6 5 8 10 11 9 8 8 12 10 10 6 8 10 9 7 5 5 3 3
7 8 9 9 9 9 9 9 9 9 9 9 9 9 10 10 11 13 11 6 6 6 7 5 6 9 10 9 10 10 10 13 12 11 8 9 10 7 6 7 7 4 4
Wind_Direction
342 338 340 328 327 325 316 312 310 305 304 304 308 308 306 305 301 281 262 265 250 257 245 232 239 236 227 227 221 228 236 243 265 275 282 297 297 301 301 300 296 289 288
298 311 314 317 321 317 311 310 311 304 303 293 298 293 294 293 294 289 285 279 264 261 256 240 240 241 228 234 223 231 236 241 260 282 286 294 296 301 300 294 290 289 291
296 302 304 302 301 295 293 294 297 296 297 301 293 293 296 295 294 290 276 279 271 264 262 256 251 238 240 236 224 229 236 243 262 275 284 292 292 298 299 288 284 289 289
266 269 275 268 264 264 270 274 277 274 281 287 287 283 284 285 283 286 285 279 275 268 263 256 254 244 244 240 230 230 234 244 262 269 276 290 288 299 282 292 300 302 307
248 258 266 280 287 288 281 275 272 265 267 264 281 283 280 276 280 287 283 280 278 277 268 258 253 246 242 237 238 231 225 243 250 266 276 284 287 300 303 305 295 310 307
267 280 281 284 284 280 279 279 277 271 262 260 259 269 282 276 284 291 292 288 284 282 279 273 258 246 245 250 252 246 211 220 241 250 272 278 283 295 298 305 303 313 319
253 278 272 261 268 270 265 270 270 273 271 267 268 269 273 277 288 291 292 287 282 277 275 276 277 255 235 238 252 256 248 251 250 257 263 268 281 291 296 292 290 301 292
269 264 272 270 271 276 275 271 269 268 255 266 269 271 273 277 286 290 294 291 282 276 272 270 273 264 232 222 234 238 242 240 245 251 261 272 276 278 271 271 301 303 292
261 256 256 250 260 268 273 275 275 279 273 262 257 269 273 276 284 289 293 285 280 277 273 269 268 262 251 238 225 234 243 253 253 256 256 267 273 281 294 303 299 308 311
252 248 246 246 245 254 258 265 264 260 264 267 270 266 267 273 279 287 290 275 271 275 272 268 268 240 243 231 240 254 255 252 241 241 265 269 278 278 284 271 284 281 293
255 242 243 246 247 246 256 250 255 257 261 262 266 273 274 265 270 282 286 272 267 272 269 271 267 241 239 244 250 245 245 224 234 236 242 253 263 251 261 235 241 240 199
249 247 251 254 258 264 255 264 255 249 256 266 271 275 272 272 259 276 286 274 276 271 267 265 255 237 240 253 264 256 241 241 211 186 233 264 262 261 260 263 250 232 222
250 252 255 260 259 259 260 266 269 259 264 274 271 277 281 281 273 282 289 281 280 280 272 265 244 236 242 250 269 251 233 175 250 247 257 260 230 239 313 303 283 276 265
267 269 268 262 268 261 251 257 261 264 266 269 273 277 281 282 280 279 284 277 275 275 274 277 257 247 221 215 231 266 147 172 207 241 242 247 214 312 246 223 232 332 347
269 272 270 269 266 265 254 260 256 257 252 262 263 262 271 277 275 278 280 276 275 256 259 252 251 233 203 199 191 224 221 159 190 196 233 235 221 175 238 323 116 29 72
268 273 267 266 264 262 270 278 264 268 273 274 280 276 276 276 285 287 283 277 274 272 267 230 226 229 230 215 211 217 182 204 200 212 226 207 191 177 182 303 78 86 85
259 270 267 266 268 268 267 266 279 278 274 280 278 279 280 282 286 284 279 273 265 265 253 242 216 213 228 220 210 204 208 201 179 219 215 167 164 131 166 103 115 86 14
261 263 264 269 268 268 266 269 270 277 286 281 270 275 282 283 283 279 273 277 262 237 248 237 201 201 206 210 210 218 186 176 198 208 187 158 166 156 142 145 139 121 75
264 265 261 262 260 263 268 261 268 269 268 278 288 282 283 284 288 281 269 263 254 237 226 224 180 193 189 192 206 192 177 188 193 186 155 151 156 158 106 127 110 98 96
259 255 253 260 269 268 262 262 261 260 267 271 275 278 290 289 285 281 262 256 261 256 232 194 195 185 185 184 183 176 173 182 188 169 151 141 158 150 143 141 140 130 146
261 264 263 263 262 263 262 260 259 262 266 269 269 269 274 280 283 279 275 253 243 246 208 188 181 184 177 169 164 171 172 181 177 151 144 141 145 133 128 109 112 108 124
255 265 265 264 268 266 261 259 260 261 264 269 274 276 280 280 277 274 268 253 237 239 195 185 182 180 174 176 172 170 167 180 172 141 139 138 136 131 127 120 120 113 111
256 268 272 272 270 270 269 267 264 262 269 270 271 274 274 267 266 264 268 252 238 208 183 177 167 158 167 164 170 172 168 183 176 149 148 150 144 144 140 137 135 114 99
269 270 272 273 271 268 267 265 263 263 264 267 268 268 269 271 268 268 271 253 219 182 179 174 173 168 162 155 156 145 133 134 143 147 144 147 139 135 127 118 128 111 118
261 265 268 271 271 271 271 264 263 263 264 267 270 270 271 269 270 269 267 252 185 174 173 170 160 164 163 158 159 151 149 146 136 136 130 136 138 137 130 122 122 105 99
262 264 269 272 270 268 267 266 264 263 263 265 268 269 268 271 273 273 262 198 174 165 160 162 161 155 153 154 154 145 147 139 134 130 130 136 134 128 124 123 122 111 112